Weather Roundup
Issued by NWS Springfield, MO

Home | Current Version | Previous Version | Text Only | Print | Product List | Glossary On
Versions: 1 2 3 4 5 6 7 8 9 10 11 12 13 14 15 16 17 18 19 20 21 22 23 24 25 26 27 28 29 30 31 32 33 34 35 36 37 38 39 40 41 42 43 44 45 46 47 48 49 50
000
NZUS99 KSGF 111807
HRRSGF

HOURLY WEATHER
NATIONAL WEATHER SERVICE SPRINGFIELD MO
1200 PM CST THU FEB 11 2016

......SGF CWA......

CITY           SKY/WX    TMP DP  RH WIND       PRES   REMARKS
SPRINGFIELD    SUNNY     41  16  36 NE7       30.21S
6HR MIN TEMP:  24; 6HR MAX TEMP:  41;

JOPLIN         SUNNY     41  21  44 NE12G18   30.23F
6HR MIN TEMP:  25; 6HR MAX TEMP:  41;

WEST PLAINS    SUNNY     40  16  37 VRB5      30.22F
6HR MIN TEMP:  20; 6HR MAX TEMP:  40;

ROLLA          SUNNY     32  21  64 N9        30.26S WCI  24
6HR MIN TEMP:  20; 6HR MAX TEMP:  32;

OSAGE BEACH    SUNNY     36  18  48 E9        30.27F WCI  29
BRANSON        SUNNY     41  16  36 NE5       30.21F

......SURROUNDING SGF CWA......

CITY           SKY/WX    TMP DP  RH WIND       PRES   REMARKS
CHANUTE        SUNNY     39  22  50 NE10      30.25F WCI  32
PARSONS        SUNNY     40  23  50 NE8       30.25F WCI  34
COFFEYVILLE    SUNNY     42  23  46 N9        30.24F
EMPORIA        SUNNY     35  21  56 E10       30.24F WCI  27
GROVE OK       SUNNY     46  25  42 N5        30.22F
ROGERS AR      SUNNY     47  22  37 NE12      30.18S
SILOAM SPRINGS SUNNY     48  25  40 E3        30.18S
HARRISON AR    SUNNY     42  19  39 NE9       30.20S
NEAR YELLVILLE SUNNY     43  16  33 NE5       30.21S

......KANSAS AND MISSOURI......

CITY           SKY/WX    TMP DP  RH WIND       PRES   REMARKS
KANSAS CTY INT PTSUNNY   30  20  66 E8        30.28F WCI  22
DOWNTOWN KC    MOSUNNY   33  19  56 E9        30.29F WCI  25
COLUMBIA       SUNNY     29  17  61 E8        30.28F WCI  21
SEDALIA        SUNNY     34  18  52 E9        30.29F WCI  27
ST JOSEPH      SUNNY     30  17  58 SE7       30.31F WCI  23
ST LOUIS       MOSUNNY   26  12  55 CALM      30.34F
SPIRIT OF STL  MOSUNNY   27  17  66 NE5       30.34F WCI  22
KIRKSVILLE     SUNNY     20   3  48 E3        30.34R
WICHITA        PTSUNNY   41  23  48 NE8       30.22F
TOPEKA         SUNNY     35  21  56 VRB6      30.29F WCI  30
OLATHE         SUNNY     32  19  58 E9        30.26F WCI  24

......TENNESSEE......

CITY           SKY/WX    TMP DP  RH WIND       PRES   REMARKS
MEMPHIS        MOSUNNY   48  21  34 NE9       30.18S
NASHVILLE      MOSUNNY   38  23  55 NE6       30.25F WCI  33

......ARKANSAS.......

CITY           SKY/WX    TMP DP  RH WIND       PRES   REMARKS
FAYETTEVILLE   SUNNY     49  26  41 VRB6      30.17S
FT SMITH       SUNNY     56  27  32 VRB5      30.15S
LITTLE ROCK    MOSUNNY   47  23  38 NE10      30.19F

......OKLAHOMA.......

CITY           SKY/WX    TMP DP  RH WIND       PRES   REMARKS
TULSA          MOSUNNY   46  26  45 N10       30.23S
PONCA CITY     SUNNY     46  25  43 E7        30.23F
MCALESTER      SUNNY     56  31  38 N13       30.16R
OKLAHOMA CITY  MOSUNNY   54  32  43 N12       30.20F

......IOWA............

CITY           SKY/WX    TMP DP  RH WIND       PRES   REMARKS
DES MOINES     CLOUDY    16   0  49 S5        30.34F WCI   9
QUAD CITIES    SUNNY     20   0  41 NE3       30.35F

......ILLINOIS........

CITY           SKY/WX    TMP DP  RH WIND       PRES   REMARKS
QUINCY         SUNNY     20   5  52 N5        30.33F WCI  13
CHICAGO        MOSUNNY   17   1  49 VRB3      30.32S



USA.gov is the U.S. government's official web portal to all federal, state and local government web resources and services.